Change the Weather History Date:

Tuesday, July 9, 2013

  Actual Average Record
Temperature  
Mean Temperature 63 °F 64 °F  
Max Temperature 71 °F 72 °F 94 °F (1959)
Min Temperature 54 °F 55 °F 47 °F (1953)
Degree Days  
Heating Degree Days 2 2  
Month to date heating degree days 11 18  
Since 1 June heating degree days 99 123  
Since 1 July heating degree days 11 18  
Cooling Degree Days 0 1  
Month to date cooling degree days 15 9  
Year to date cooling degree days 69 49  
Since 1 June cooling degree days 42 30  
Growing Degree Days 13 (Base 50)    
Moisture  
Dew Point 52 °F    
Average Humidity 73    
Maximum Humidity 93    
Minimum Humidity 53    
Precipitation  
Precipitation 0.00 in 0.00 in 0.01 in (1945)
Month to date precipitation T 0.00  
Year to date precipitation 1.89 13.08  
Since 1 July precipitation T 0.00  
Sea Level Pressure  
Sea Level Pressure 30.00 in    
Wind  
Wind Speed 13 mph (NW)    
Max Wind Speed 28 mph    
Max Gust Speed 31 mph    
Visibility 10 miles    
Events      
T = Trace of Precipitation, MM = Missing Value Source: NWS Daily Summary

Daily Weather History Graph

Daily Weather History Graph

Search for Another Location

Airport or City:

Trip Planner

Search our weather history database for the weather conditions in past years. The results will help you decide how hot, cold, wet, or windy it might be!

Date:

Astronomy

Jul. 09, 2013 Rise Set
Actual Time 5:56 AM PDT 8:33 PM PDT
Civil Twilight 5:25 AM PDT 9:03 PM PDT
Nautical Twilight 4:47 AM PDT 9:41 PM PDT
Astronomical Twilight 4:04 AM PDT 10:24 PM PDT
Moon 7:23 AM PDT (7/9) 9:16 PM PDT (7/9)
Length of Visible Light 15h 38m
Length of Day
14h 36m
New Moon, 2% of the Moon is Illuminated
Jul 9
New Moon
Jul 15
First Quarter
Jul 22
Full
Jul 29
Last Quarter
Aug 6
New

Hourly Weather History & Observations

Time (PDT) Temp. Dew Point Humidity Pressure Visibility Wind Dir Wind Speed Gust Speed Precip Events Conditions
12:56 AM 55.9 °F 52.0 °F 87% 29.99 in 10.0 mi WNW 8.1 mph - N/A   Partly Cloudy
1:56 AM 55.9 °F 52.0 °F 87% 29.99 in 10.0 mi WNW 10.4 mph - N/A   Partly Cloudy
2:56 AM 55.0 °F 52.0 °F 89% 29.99 in 10.0 mi WNW 8.1 mph - N/A   Partly Cloudy
3:36 AM 55.4 °F 51.8 °F 88% 29.99 in 10.0 mi WNW 9.2 mph - N/A   Mostly Cloudy
3:56 AM 55.9 °F 53.1 °F 90% 30.00 in 10.0 mi WNW 9.2 mph - N/A   Mostly Cloudy
4:56 AM 55.9 °F 52.0 °F 87% 30.01 in 10.0 mi WNW 6.9 mph - N/A   Mostly Cloudy
5:56 AM 55.0 °F 52.0 °F 89% 30.02 in 9.0 mi WNW 6.9 mph - N/A   Overcast
6:56 AM 55.9 °F 52.0 °F 87% 30.03 in 8.0 mi WNW 4.6 mph - N/A   Overcast
7:56 AM 57.9 °F 53.1 °F 84% 30.04 in 9.0 mi Calm Calm - N/A   Overcast
8:56 AM 60.1 °F 55.0 °F 83% 30.04 in 8.0 mi North 4.6 mph - N/A   Overcast
9:56 AM 62.1 °F 55.9 °F 80% 30.03 in 10.0 mi NNE 4.6 mph - N/A   Mostly Cloudy
10:29 AM 62.6 °F 55.4 °F 77% 30.03 in 10.0 mi NNE 5.8 mph - N/A   Scattered Clouds
10:56 AM 63.0 °F 55.9 °F 78% 30.03 in 10.0 mi NNE 5.8 mph - N/A   Partly Cloudy
11:56 AM 68.0 °F 54.0 °F 61% 30.03 in 10.0 mi WNW 11.5 mph - N/A   Partly Cloudy
12:56 PM 68.0 °F 53.1 °F 59% 30.02 in 10.0 mi WNW 16.1 mph - N/A   Partly Cloudy
1:56 PM 69.1 °F 52.0 °F 54% 30.00 in 10.0 mi WNW 17.3 mph - N/A   Partly Cloudy
2:56 PM 70.0 °F 52.0 °F 53% 29.99 in 10.0 mi WNW 16.1 mph - N/A   Partly Cloudy
3:56 PM 68.0 °F 51.1 °F 55% 29.98 in 10.0 mi WNW 21.9 mph - N/A   Partly Cloudy
4:56 PM 66.0 °F 51.1 °F 59% 29.97 in 10.0 mi WNW 24.2 mph 29.9 mph N/A   Partly Cloudy
5:56 PM 64.0 °F 51.1 °F 63% 29.95 in 10.0 mi WNW 26.5 mph 31.1 mph N/A   Partly Cloudy
6:56 PM 62.1 °F 51.1 °F 67% 29.94 in 10.0 mi WNW 20.7 mph - N/A   Partly Cloudy
7:56 PM 57.0 °F 51.1 °F 81% 29.94 in 10.0 mi WNW 21.9 mph - N/A   Partly Cloudy
8:56 PM 57.0 °F 51.1 °F 81% 29.95 in 10.0 mi WNW 17.3 mph - N/A   Partly Cloudy
9:56 PM 57.0 °F 51.1 °F 81% 29.98 in 10.0 mi West 16.1 mph - N/A   Partly Cloudy
10:56 PM 55.0 °F 51.1 °F 86% 29.99 in 10.0 mi WNW 19.6 mph - N/A   Partly Cloudy
11:56 PM 54.0 °F 50.0 °F 86% 29.99 in 10.0 mi WNW 17.3 mph - N/A   Partly Cloudy